Regional Weather Roundup
Issued by NWS

Home | Current Version | Previous Version | Text Only | Print | Product List | Glossary On
Versions: 1 2 3 4 5 6 7 8 9 10 11 12 13 14 15 16 17 18 19 20 21 22 23 24 25 26 27 28 29 30 31 32 33 34 35 36 37 38 39 40 41 42 43 44 45 46 47 48 49 50
000
ASUS43 KTOP 172308
RWRKS

WEATHER ROUNDUP FOR KANSAS
NATIONAL WEATHER SERVICE GOODLAND KS
600 PM CDT THU APR 17 2014

NOTE:  "FAIR" INDICATES FEW OR NO CLOUDS BELOW 12,000 FEET WITH NO
SIGNIFICANT WEATHER AND/OR OBSTRUCTIONS TO VISIBILITY.

KSZ001>006-013>018-027>032-041>047-180000-
NORTHWEST KANSAS

CITY           SKY/WX    TMP DP  RH WIND       PRES   REMARKS
GOODLAND       CLOUDY    53  37  54 S21G26    30.15F
HAYS           SUNNY     57  30  35 CALM      30.21S
HILL CITY      SUNNY     58  30  34 S10       30.19F
RUSSELL        SUNNY     56  29  35 E5        30.20F
$$

KSZ061>065-074>080-084>089-180000-
SOUTHWEST KANSAS

CITY           SKY/WX    TMP DP  RH WIND       PRES   REMARKS
DODGE CITY     CLOUDY    52  41  66 VRB3      30.22F
ELKHART          N/A     51  35  54 SE10        N/A
GARDEN CITY    MOSUNNY   50  40  68 S9        30.21F
GREAT BEND     SUNNY     57  30  35 CALM      30.21S
LIBERAL        MOSUNNY   50  39  66 E7        30.23F
PRATT          SUNNY     54  36  50 E6        30.23S
$$

KSZ066>073-081>083-090>101-180000-
SOUTHEAST KANSAS

CITY           SKY/WX    TMP DP  RH WIND       PRES   REMARKS
CHANUTE        CLOUDY    47  35  63 N5        30.29R
COFFEYVILLE    CLOUDY    51  37  58 N10       30.26S
HUTCHINSON     MOSUNNY   53  31  42 E6        30.23F
MEDICINE LODGE   N/A     52  41  66 SE6       30.22F
NEWTON         MOSUNNY   48  30  49 E5        30.27F
PARSONS        LGT RAIN  47  39  74 N5        30.28R
WICHITA INTL   PTSUNNY   50  36  58 E7        30.24F
WICHITA JABRA  CLOUDY    48  37  65 NE6       30.24F
WICHITA MCCONL PTSUNNY   49  39  67 E8        30.25F
WINFIELD       PTSUNNY   49  36  61 E8        30.27S HAZE
$$

KSZ007>012-019>026-033>040-048>060-102>105-180000-
NORTHEAST KANSAS

CITY           SKY/WX    TMP DP  RH WIND       PRES   REMARKS
CONCORDIA      SUNNY     55  28  35 VRB3      30.22F
EMPORIA        CLOUDY    46  32  58 NE6       30.26F HAZE
LAWRENCE       PTSUNNY   51  34  52 VRB5      30.28S
MANHATTAN      SUNNY     57  31  37 VRB5      30.24S
OLATHE IND     CLOUDY    46  33  60 CALM      30.28S
OLATHE EXE     CLOUDY    46  33  60 VRB3      30.27S
SALINA         SUNNY     57  28  33 CALM      30.23F
TOPEKA BILLARD MOSUNNY   52  34  50 SE5       30.27S
TOPEKA FORBES  MOSUNNY   52  33  48 VRB6      30.26S
$$



USA.gov is the U.S. government's official web portal to all federal, state and local government web resources and services.